Terug naar catalogus

COSMOS 1327

ActiefMilitairLEO
NORAD 12982·PAYLOAD·🇷🇺 Russia

Gelanceerd Nov 28, 1981 vanaf Plesetsk Cosmodrome

Loading…

Volgende Passages (komende 24 uur)

TLE

VersSource: Space-Track

Epoch: Sep 14, 2026, 04:16 UTC

1 12982U 81116H   26257.17808054  .00000003  00000-0  15446-3 0  9990
2 12982  73.9834 164.2840 0077012 349.9957  80.6728 12.31648050 13977

Volg COSMOS 1327 in realtime met AllMySat

Download on the App Store